sat.trackr.live / text

‹ back to catalog

HJ-2A

NORAD 46478 · 2020-067A

PAYLOAD ACTIVE UNKNOWN

§ Identity

Operator
Country
PRC
Launch date
2020-09-27
Launch site
TAISC
Launch vehicle
Mass (kg)
RCS (m²)

External: N2YO · Heavens-Above · Gunter

§ Orbital elements

Epoch: 2026-09-20T04:11:10.848768Z

Period
97.52 min
Inclination
97.8759°
Eccentricity
0.0002949
Mean motion
14.76550290 rev/d
Perigee alt
638.2 km
Apogee alt
642.3 km
Semi-major
7,018.4 km
B*
5.2474e-5
RAAN
339.2669°
Arg perigee
344.1919°
Mean anomaly
15.9199°
Rev number
32,227

§ Raw data

HJ-2A1 46478U 20067A   26263.17443112  .00000316  00000+0  52474-4 0  99912 46478  97.8759 339.2669 0002949 344.1919  15.9199 14.76550290322278

JSON: /api/v1/satellites/46478 · /tle

For live sub-satellite position, see the globe view (requires WebGL).

§ Visibility from observer

Set your observer location to see the next 7 days of passes ≥ 10°. The values pass through the URL so the page stays shareable.

No JS? Fill the form by hand. The geolocation button needs JavaScript.

§ Radio — SatNOGS DB

ModeDescriptionDownlinkUplink
FM S-band telemetry 2.238 GHz

1 transmitter · refreshed weekly from db.satnogs.org